Regional Weather Roundup
Issued by NWS Portland, ME

Current Version | Previous Version | Text Only | Print | Product List | Glossary On
Versions: 1 2 3 4 5 6 7 8 9 10 11 12 13 14 15 16 17 18 19 20 21 22 23 24 25 26 27 28 29 30 31 32 33 34 35 36 37 38 39 40 41 42 43 44 45 46 47 48 49 50
000
ASUS41 KGYX 280110
RWRGYX
WEATHER ROUNDUP FOR MAINE AND NEW HAMPSHIRE
NATIONAL WEATHER SERVICE GRAY ME
900 PM EDT MON JUL 27 2015

MEZ002-005-006-010-012-015-018-020-021-024-026-027-029-280200-
MAINE

CITY           SKY/WX    TMP DP  RH WIND       PRES   REMARKS
PORTLAND       PTCLDY    64  62  93 E3        30.00S
SANFORD        PTCLDY    66  63  88 CALM      30.01R
BAR HARBOR     CLOUDY    64  64 100 S3        30.01S VSB 1
WISCASSET      CLOUDY    65  63  93 CALM      30.01S
ROCKLAND       CLOUDY    61  61 100 CALM      29.99F VSB 1/4
FRYEBURG       MOCLDY    72  70  93 SE6       30.00R
LEWISTONAUBURN MOCLDY    66  63  88 S6        30.00R
AUGUSTA        MOCLDY    69  66  90 S3        30.00R
WATERVILLE     CLOUDY    72  66  83 S5        29.97R
BANGOR         PTCLDY    68  66  93 S5        29.99S
GREENVILLE       N/A     65  63  93 CALM      30.00S
MILLINOCKET    CLOUDY    69  66  90 CALM      29.98S
HOULTON        CLOUDY    68  64  87 VRB3      29.97S
PRESQUE ISLE   CLOUDY    64  59  82 S9        29.96F
FRENCHVILLE    CLOUDY    62  58  86 SE5       29.95F
CARIBOU        LGT RAIN  64  60  87 S6        29.95F
$$

NHZ002-005-008-009-011-012-014-280200-
NEW HAMPSHIRE

CITY           SKY/WX    TMP DP  RH WIND       PRES   REMARKS
PORTSMOUTH     MOCLDY    68  65  89 NE1       29.99R
ROCHESTER      PTCLDY    71  67  87 CALM      30.00R
MANCHESTER     MOCLDY    74  69  85 CALM      29.98S
CONCORD        PTCLDY    72  66  81 SE3       29.99S
LACONIA        PTCLDY    73  64  73 SW5       29.98S
PLYMOUTH       FAIR      72  72 100 CALM      29.97F
BERLIN         CLOUDY    73  65  75 CALM      30.00R
WHITEFIELD     MOCLDY    72  66  81 CALM      29.99S
JAFFREY        PTCLDY    69  68  96 CALM      30.03R
KEENE          PTCLDY    72  64  78 CALM      30.00R
LEBANON        PTCLDY    73  67  81 CALM      29.97S
MT WASHINGTON  FOG       54  54 100 W18         N/A  VSB 1/8
$$

VTZ005-007-008-280200-
VERMONT

CITY           SKY/WX    TMP DP  RH WIND       PRES   REMARKS
ST JOHNSBURY     N/A     74  66  76 MISG      29.96R
MONTPELIER     MOCLDY    68  62  81 CALM      30.04R
BURLINGTON     MOCLDY    75  66  73 S3        29.96R
$$

MAZ007-012-024-CTZ003-RIZ002-NYZ038-NYZ072-280200-
SOUTHERN NEW ENGLAND AND NY

CITY           SKY/WX    TMP DP  RH WIND       PRES   REMARKS
BOSTON         PTCLDY    74  67  78 S8        29.99S
WORCESTER      PTCLDY    71  65  81 SW9       30.03S
NANTUCKET      PTCLDY    69  67  93 S8        30.04R
PROVIDENCE     MOCLDY    73  68  84 S8        30.01S
HARTFORD       MOCLDY    79  65  62 SW12      29.98S
ALBANY         MOCLDY    81  67  62 CALM      29.97R
NEW YORK CITY  MOCLDY    79  66  64 S10G16    30.00R
$$

ANZ081-ANZ082-ANZ150-NHZ014-MEZ023>029-280200-
COASTAL MARINE OBSERVATIONS

STATION/POSITION TIME  TEMP    WIND        PRES    WAVE
                       AIR SEA DIR/SP/G            HT/PER
                 (UTC) (F)     (DEG/KT/KT) (MB)    (FT/S)
MOUNT DESERT ROC 0100   62     180/  6/  7 1016.7R
MATINICUS ROCK   0000   62     220/  6/  6 1015.7R
ISLE OF SHOALS   0000   69     150/  5/  6 1014.8R
JEFFREYS LEDGE   0003      65                N/A     3/10
CASHES LEDGE BUO 0050   67                 1015.6R   2/ 8
GEORGES BANK BUO 0050   69 69   40/  4/  4 1018.3R   3/ 8
$$

.............KEY..............
   WCI - WIND CHILL
   TC  - TEMPERATURE IN CELSIUS
   VSB - VISIBILITY IN MILES
   HX  - HEAT INDEX
   FAIR- INDICATES FEW OR NO CLOUDS BELOW 12,000 FT, WITH NO
         SIGNIFICANT WEATHER AND/OR OBSTRUCTIONS TO VISIBILITY.





USA.gov is the U.S. government's official web portal to all federal, state and local government web resources and services.